Weather History for KOVS - June, 2013

Change the Weather History Date:

Saturday, June 22, 2013

  Actual Average (KPDC) Record (KPDC)
Temperature  
Mean Temperature 77 °F -  
Max Temperature 88 °F 81 °F 98 °F (1988)
Min Temperature 66 °F 58 °F 45 °F (1963)
Cooling Degree Days 12    
Growing Degree Days 27 (Base 50)    
Moisture  
Dew Point 67 °F    
Average Humidity 85    
Maximum Humidity 97    
Minimum Humidity 58    
Precipitation  
Precipitation 3.85 in - - ()
Sea Level Pressure  
Sea Level Pressure 29.95 in    
Wind  
Wind Speed 7 mph (NE)    
Max Wind Speed 23 mph    
Max Gust Speed 33 mph    
Visibility 4 miles    
Events Fog , Rain , Thunderstorm    
Averages and records for this station are not official NWS values.
T = Trace of Precipitation, MM = Missing Value Source: NWS Daily Summary

Daily Weather History Graph

Daily Weather History Graph

Search for Another Location

Airport or City:

Trip Planner

Search our weather history database for the weather conditions in past years. The results will help you decide how hot, cold, wet, or windy it might be!

Date:

Astronomy

Jun. 22, 2013 Rise Set
Actual Time 5:23 AM CDT 8:46 PM CDT
Civil Twilight 4:47 AM CDT 9:21 PM CDT
Nautical Twilight 4:01 AM CDT 10:08 PM CDT
Astronomical Twilight 3:03 AM CDT 11:05 PM CDT
Moon 7:59 PM CDT (6/22) 4:37 AM CDT (6/22)
Length of Visible Light 16h 33m
Length of Day
15h 22m
Waxing Gibbous, 99% of the Moon is Illuminated
Jun 22
Waxing Gibbous
Jun 23
Full
Jun 29
Last Quarter
Jul 8
New
Jul 15
First Quarter

Hourly Weather History & Observations

Time (CDT) Temp. Heat Index Dew Point Humidity Pressure Visibility Wind Dir Wind Speed Gust Speed Precip Events Conditions
12:49 AM 71.6 °F - 66.2 °F 83% 29.92 in 10.0 mi Calm Calm - N/A Thunderstorm Overcast
12:53 AM 71.1 °F - 66.9 °F 87% 29.92 in 10.0 mi Variable 3.5 mph - 0.00 in Rain , Thunderstorm Light Rain
1:11 AM 70.0 °F - 66.9 °F 90% 29.95 in 4.0 mi WNW 5.8 mph - 0.04 in Rain , Thunderstorm Heavy Thunderstorms and Rain
1:17 AM 70.0 °F - 66.9 °F 90% 29.92 in 1.8 mi SE 4.6 mph - 0.18 in Rain , Thunderstorm Heavy Thunderstorms and Rain
1:21 AM 69.1 °F - 66.9 °F 93% 29.93 in 1.0 mi NE 8.1 mph - 0.30 in Rain , Thunderstorm Heavy Thunderstorms and Rain
1:26 AM 69.1 °F - 68.0 °F 96% 29.95 in 1.2 mi Variable 6.9 mph - 0.36 in Rain , Thunderstorm Heavy Thunderstorms and Rain
1:35 AM 69.1 °F - 68.0 °F 96% 29.94 in 3.0 mi ENE 9.2 mph - 0.40 in Rain , Thunderstorm Thunderstorms and Rain
1:45 AM 69.1 °F - 68.0 °F 96% 29.97 in - NW 10.4 mph - 0.52 in Rain , Thunderstorm Heavy Thunderstorms and Rain
1:53 AM 69.1 °F - 66.9 °F 93% 30.00 in 1.8 mi WNW 5.8 mph - 0.61 in Rain , Thunderstorm Heavy Thunderstorms and Rain
1:58 AM 69.1 °F - 66.9 °F 93% 29.99 in 0.8 mi SE 5.8 mph - 0.22 in Rain , Thunderstorm Heavy Thunderstorms and Rain
2:12 AM 69.1 °F - 66.9 °F 93% 29.98 in 0.5 mi Variable 6.9 mph - 0.97 in Fog , Rain , Thunderstorm Heavy Thunderstorms and Rain
2:29 AM 69.1 °F - 68.0 °F 96% 29.94 in 1.0 mi ESE 10.4 mph - 1.56 in Rain , Thunderstorm Heavy Thunderstorms and Rain
2:35 AM 69.1 °F - 68.0 °F 96% 29.97 in 2.0 mi West 11.5 mph 16.1 mph 1.59 in Rain , Thunderstorm Heavy Thunderstorms and Rain
2:38 AM 69.1 °F - 68.0 °F 96% 29.98 in 3.0 mi WNW 16.1 mph 19.6 mph 1.59 in Rain , Thunderstorm Thunderstorms and Rain
9:53 AM - - - N/A% - - North - - N/A   Unknown
10:53 AM - - - N/A% - - North - - N/A   Unknown
11:53 AM 75.9 °F - 66.0 °F 71% 29.99 in 10.0 mi Variable 5.8 mph - N/A   Unknown
12:53 PM 75.9 °F - 64.9 °F 69% 29.98 in 10.0 mi South 8.1 mph - N/A   Clear
1:53 PM 82.9 °F 85.4 °F 66.9 °F 58% 29.95 in 10.0 mi South 13.8 mph 18.4 mph N/A   Clear
2:53 PM 84.9 °F 88.8 °F 69.1 °F 59% 29.92 in 10.0 mi South 12.7 mph 18.4 mph N/A   Clear
3:53 PM 84.9 °F 90.1 °F 71.1 °F 63% 29.91 in 10.0 mi South 5.8 mph - N/A   Overcast
4:53 PM 88.0 °F 96.5 °F 73.9 °F 63% 29.91 in 10.0 mi Variable 4.6 mph - N/A   Mostly Cloudy
5:53 PM 86.0 °F 95.1 °F 75.0 °F 70% 29.90 in 10.0 mi SSW 4.6 mph - N/A   Scattered Clouds
6:35 PM 84.9 °F 93.3 °F 75.0 °F 72% 29.87 in 10.0 mi Calm Calm - N/A Thunderstorm Overcast
6:53 PM 82.9 °F 90.8 °F 75.9 °F 79% 29.87 in 10.0 mi ENE 4.6 mph - N/A Thunderstorm Overcast
7:44 PM 79.0 °F - 66.9 °F 66% 29.87 in 10.0 mi Calm Calm - N/A   Mostly Cloudy
7:53 PM 80.1 °F 81.9 °F 64.9 °F 60% 29.87 in 10.0 mi Calm Calm - N/A   Mostly Cloudy
8:13 PM 78.1 °F - 66.0 °F 66% 29.87 in 10.0 mi East 4.6 mph - N/A Thunderstorm Mostly Cloudy
8:39 PM 77.0 °F - 64.0 °F 64% 29.93 in 10.0 mi North 15.0 mph 29.9 mph N/A Thunderstorm Thunderstorm
8:50 PM 69.8 °F - 64.4 °F 83% 29.96 in 2.5 mi NE 12.7 mph 23.0 mph 0.07 in Rain , Thunderstorm Heavy Thunderstorms and Rain
8:53 PM 68.0 °F - 64.0 °F 87% 29.96 in 2.5 mi NNE 11.5 mph 20.7 mph 0.07 in Rain , Thunderstorm Heavy Thunderstorms and Rain
9:00 PM 66.9 °F - 64.9 °F 93% 29.94 in 1.8 mi North 11.5 mph 20.7 mph 0.16 in Rain , Thunderstorm Heavy Thunderstorms and Rain
9:04 PM 66.9 °F - 64.9 °F 93% 29.93 in 0.8 mi NNE 10.4 mph - 0.40 in Rain , Thunderstorm Heavy Thunderstorms and Rain
9:23 PM 69.1 °F - 66.0 °F 90% 29.92 in 1.2 mi North - - 1.00 in Rain , Thunderstorm Heavy Thunderstorms and Rain
9:29 PM 71.1 °F - 66.0 °F 84% 29.90 in 0.8 mi SE 9.2 mph - 1.35 in Rain , Thunderstorm Heavy Thunderstorms and Rain
9:40 PM 70.0 °F - 66.9 °F 90% 29.92 in 1.2 mi Variable 6.9 mph 20.7 mph 1.58 in Rain , Thunderstorm Thunderstorms and Rain
9:43 PM 70.0 °F - 66.9 °F 90% 29.91 in 3.0 mi South 4.6 mph - 1.58 in Rain , Thunderstorm Light Thunderstorms and Rain
9:53 PM 70.0 °F - 68.0 °F 93% 29.90 in 6.0 mi NNW 3.5 mph - 1.59 in Rain , Thunderstorm Light Thunderstorms and Rain
10:22 PM 68.0 °F - 66.0 °F 93% 29.95 in 1.8 mi NNE 15.0 mph 25.3 mph 0.28 in Rain , Thunderstorm Heavy Thunderstorms and Rain
10:26 PM 66.9 °F - 66.0 °F 97% 29.93 in 1.0 mi North 16.1 mph 27.6 mph 0.38 in Rain , Thunderstorm Heavy Thunderstorms and Rain
10:34 PM 66.9 °F - 64.9 °F 93% 30.00 in 0.8 mi North 8.1 mph 33.4 mph 0.67 in Rain , Thunderstorm Heavy Thunderstorms and Rain
10:37 PM 66.9 °F - 64.9 °F 93% 29.99 in 1.0 mi North 9.2 mph 33.4 mph 0.69 in Rain , Thunderstorm Heavy Thunderstorms and Rain
10:44 PM 66.9 °F - 64.9 °F 93% 29.99 in 2.0 mi NNE 15.0 mph 26.5 mph 0.73 in Rain , Thunderstorm Heavy Thunderstorms and Rain
10:49 PM 68.0 °F - 64.4 °F 88% 30.04 in 3.0 mi NNE 17.3 mph 26.5 mph 0.74 in Rain , Thunderstorm Thunderstorms and Rain
10:53 PM 68.0 °F - 64.9 °F 90% 30.07 in 4.0 mi North 23.0 mph 31.1 mph 0.76 in Rain , Thunderstorm Light Thunderstorms and Rain
10:59 PM 68.0 °F - 64.9 °F 90% 30.03 in 1.5 mi North 15.0 mph 31.1 mph 0.22 in Rain , Thunderstorm Heavy Thunderstorms and Rain
11:02 PM 66.9 °F - 66.0 °F 97% 30.01 in 1.0 mi NNE 13.8 mph 29.9 mph 0.38 in Rain , Thunderstorm Heavy Thunderstorms and Rain
11:07 PM 66.9 °F - 66.0 °F 97% 30.03 in 0.8 mi NNE 16.1 mph 23.0 mph 0.54 in Rain , Thunderstorm Heavy Rain
11:09 PM 66.9 °F - 66.0 °F 97% 30.04 in 0.8 mi NE 16.1 mph 28.8 mph 0.57 in Rain , Thunderstorm Heavy Thunderstorms and Rain
11:13 PM 66.9 °F - 64.9 °F 93% 30.06 in 1.2 mi Variable 5.8 mph 28.8 mph 0.61 in Rain , Thunderstorm Heavy Thunderstorms and Rain
11:29 PM 66.9 °F - 66.0 °F 97% 30.03 in - ESE 4.6 mph - 0.71 in Rain , Thunderstorm Heavy Thunderstorms and Rain
11:53 PM 66.9 °F - 64.9 °F 93% 30.02 in 3.0 mi Variable 4.6 mph - 0.82 in Rain , Thunderstorm Heavy Thunderstorms and Rain